Vertical_Velocity
-1 -2 -2 -3 -2 -1 0 -0 0 -0 -1 -1 -1 -2 -2 -1 -2 -2 -2 -2 -1 -1
-3 -2 -1 -1 -1 -1 -2 -1 -1 -0 -1 0 -0 -0 -0 -0 -1 -1 -1 -1 -1 -0
-0 -1 -1 -0 -1 -0 1 -0 -1 -1 -1 -1 -1 -1 -1 -1 -1 -1 -2 -2 -2 -2
-1 -0 -0 -2 -2 -2 -2 -0 0 -0 -1 -1 -1 -1 -0 -1 -1 -2 -2 -1 -1 -1
-0 -0 -1 0 1 -1 -0 -1 -2 -1 -0 -1 -1 -2 -2 -1 -1 -3 -2 -2 -1 -2
1 0 1 2 1 2 0 -1 -1 -1 -0 0 -1 -1 -2 -2 -1 -1 -2 -2 -1 -1
1 1 0 -1 0 2 3 0 -0 -2 -2 -0 1 1 1 -0 -1 -1 -0 -1 -3 -1
-0 0 1 0 1 -3 -1 2 -1 -1 -0 -3 -3 -1 -1 1 1 1 -1 -1 -2 -1
-1 -0 1 1 -0 2 3 -0 -0 -0 -1 -2 -1 -2 -2 -2 -1 -0 1 1 -1 -2
-0 0 2 2 3 4 -0 -1 -3 1 -2 -0 -2 0 -2 -1 -1 -1 -1 1 1 0
1 1 -2 -4 -0 1 1 5 2 -1 -0 -0 -2 0 0 -3 -1 -2 -1 -0 1 -2
-3 -1 6 6 5 -3 0 0 5 0 -3 -2 -2 -1 2 -0 -3 -1 -0 -1 0 4
-0 0 -2 -1 5 4 -1 1 15 3 3 1 -2 -3 0 2 -2 -0 -0 -4 -0 -3
2 4 8 4 -1 1 -1 -2 11 4 4 1 -1 -3 -0 -1 -0 1 1 -2 -0 2
Height
3084 3081 3078 3075 3073 3070 3067 3064 3061 3058 3056 3053 3051 3048 3045 3043 3040 3038 3035 3033 3031 3028
3079 3076 3073 3070 3068 3066 3063 3060 3057 3054 3051 3048 3046 3043 3040 3037 3035 3032 3030 3028 3026 3023
3074 3071 3068 3065 3063 3061 3058 3055 3053 3050 3047 3044 3041 3038 3035 3032 3029 3027 3024 3022 3020 3018
3068 3066 3063 3062 3059 3056 3053 3051 3048 3045 3042 3039 3036 3033 3031 3028 3025 3022 3020 3017 3015 3012
3062 3060 3058 3056 3054 3052 3049 3047 3044 3040 3037 3035 3032 3029 3026 3023 3020 3017 3014 3011 3008 3006
3056 3054 3052 3050 3048 3046 3044 3042 3039 3036 3033 3030 3027 3024 3021 3017 3014 3011 3008 3005 3002 2999
3049 3048 3046 3044 3042 3040 3038 3036 3033 3031 3028 3025 3022 3018 3015 3012 3008 3005 3003 3000 2997 2994
3042 3041 3039 3037 3035 3033 3032 3029 3027 3025 3022 3019 3017 3013 3010 3006 3003 3000 2997 2994 2991 2989
3035 3033 3031 3030 3028 3026 3024 3022 3020 3018 3015 3013 3011 3007 3004 3001 2998 2994 2992 2989 2985 2982
3026 3025 3024 3022 3020 3018 3017 3014 3012 3010 3008 3006 3005 3002 2998 2995 2993 2989 2985 2983 2980 2976
3017 3015 3014 3013 3012 3012 3010 3006 3004 3002 3001 2999 2997 2996 2992 2988 2987 2983 2980 2977 2975 2972
3009 3007 3005 3003 3001 3001 3001 2999 2997 2994 2992 2991 2989 2988 2986 2982 2979 2977 2974 2972 2970 2967
3001 2999 2996 2993 2992 2990 2990 2992 2990 2987 2984 2983 2980 2980 2979 2976 2973 2971 2969 2966 2963 2961
2992 2989 2987 2985 2982 2981 2982 2983 2983 2981 2977 2975 2973 2972 2972 2969 2967 2965 2962 2960 2957 2955